[[{"header":{"parameterUnit":"m.s-1","parameterCategory":1,"la1":30.2991,"la2":30.254,"lo1":-89.0895,"lo2":-89.0444,"dy":0.0017,"dx":0.0017,"nx":28,"ny":28,"refTime":"2023-09-18T09:00:00:Z","depth":0,"parameterNumber":2,"parameterNumberName":"U-component_of_WINDS"},"data":[0,0,0,0,0,0,0,0,0,0,0,0,0,0,0,0,0,0,0,0,0,0,0,0,0,0,0,0,0,0,0,0,0,0,0,0,0,0,0,0,0,0,0,0,0,0,0,0,0,0,0,0,0,0,0,0,0,0,-2.6809,-2.6812,0,-2.7059,-2.7062,-2.7065,-2.7172,-2.7172,-2.7171,-2.7171,-2.7425,-2.7432,-2.7439,0,0,0,0,0,0,0,0,0,0,0,0,0,-2.6423,-2.643,-2.6809,-2.6812,-2.6815,-2.7059,-2.7062,-2.7066,-2.7172,-2.7172,-2.7171,-2.7171,-2.7422,-2.7431,-2.7439,0,0,0,0,0,0,0,0,0,0,0,0,0,-2.6623,-2.6432,-2.6808,-2.6898,-2.6908,-2.7058,-2.7062,-2.7067,-2.7172,-2.7172,-2.7171,-2.7171,-2.742,-2.743,-2.7441,-2.7519,0,0,-2.7473,-2.7478,0,0,0,0,0,0,0,0,-2.6612,-2.6638,-2.6881,-2.6892,-2.6904,-2.7084,-2.702,-2.7218,-2.7173,-2.7072,-2.7171,-2.717,-2.7312,-2.7331,-2.738,-2.7531,-2.7542,-2.7474,-2.7481,-2.7485,-2.7488,0,0,0,0,0,0,0,-2.6598,-2.6627,-2.6908,-2.6885,-2.6899,-2.6925,-2.6953,-2.7058,-2.7192,-2.7081,-2.7089,-2.7117,-2.7318,-2.7369,-2.7386,-2.7546,-2.7474,-2.7484,-2.749,-2.7494,-2.7779,-2.778,0,0,0,0,0,0,-2.657,-2.6615,-2.69,-2.6915,-2.6754,-2.6933,-2.6964,-2.7027,-2.7191,-2.7216,-2.7118,-2.7122,-2.7351,-2.7374,-2.7396,-2.7501,-2.7485,-2.7495,-2.7502,-2.7778,-2.7779,-2.778,0,0,0,0,0,0,-2.6561,-2.6594,-2.689,-2.6768,-2.6807,-2.694,-2.701,-2.7032,-2.7083,-2.7219,-2.7244,-2.7145,-2.7351,-2.738,-2.7489,-2.7511,-2.75,-2.751,-2.7776,-2.7778,-2.7779,-2.771,0,0,0,0,0,0,-2.6549,-2.659,-2.6621,-2.6768,-2.6814,-2.6978,-2.7011,-2.7037,-2.7102,-2.7109,-2.7252,-2.7275,-2.7353,-2.7472,-2.7499,-2.7525,-2.7518,-2.7775,-2.7777,-2.7779,-2.771,-2.7709,-2.7707,0,0,0,0,0,-2.6535,-2.659,-2.6622,-2.6656,-2.6855,-2.6979,-2.7006,-2.7095,-2.7103,-2.7136,-2.7224,-2.727,-2.7504,-2.7482,-2.7514,-2.7543,-2.7774,-2.7776,-2.7779,-2.7711,-2.7709,-2.7707,0,0,0,0,0,0,-2.6441,-2.6611,-2.6648,-2.6752,-2.6851,-2.6997,-2.7041,-2.709,-2.7187,-2.719,-2.7296,-2.7328,-2.7427,-2.7497,-2.7469,-2.763,-2.7643,-2.7652,-2.7581,-2.758,-2.7578,-2.7559,-2.7527,0,0,0,0,0,-2.6433,-2.652,-2.6663,-2.6741,-2.6789,-2.6906,-2.6964,-2.7025,-2.7131,-2.7172,-2.7268,-2.7369,-2.7466,-2.7527,-2.7623,-2.7722,-2.7755,-2.7758,-2.7756,-2.7754,-2.776,-2.782,-2.7823,-2.7788,-2.7788,-2.7788,0,0,-2.6415,-2.6519,-2.6567,-2.6725,-2.6809,-2.6897,-2.694,-2.7031,-2.7098,-2.7186,-2.7295,-2.7369,-2.7489,-2.7593,-2.7644,-2.7654,-2.7778,-2.7757,-2.7755,-2.7762,-2.7823,-2.7826,-2.7829,-2.779,-2.779,-2.779,0,0,-2.6429,-2.6516,-2.6592,-2.6676,-2.6802,-2.6881,-2.6899,-2.7039,-2.7092,-2.7203,-2.7273,-2.7354,-2.7517,-2.76,-2.7664,-2.7714,-2.7761,-2.7742,-2.7733,-2.779,-2.7793,-2.7796,-2.7814,-2.782,-2.7748,-2.7748,-2.7748,0,-2.6392,-2.6528,-2.6624,-2.6713,-2.6781,-2.6867,-2.6945,-2.7021,-2.7172,-2.7217,-2.7227,-2.7437,-2.7523,-2.7649,-2.7662,-2.771,-2.7735,-2.7725,-2.7784,-2.7788,-2.7793,-2.7812,-2.7818,-2.7745,-2.7745,-2.7746,-2.7746,0,-2.6476,-2.6569,-2.6615,-2.6761,-2.6834,-2.6916,-2.7026,-2.7089,-2.7145,-2.7222,-2.7336,-2.7443,-2.7564,-2.7599,-2.7653,-2.7734,-2.7736,-2.7764,-2.7779,-2.7791,-2.7811,-2.7819,-2.7741,-2.7742,-2.7743,-2.7743,0,0,-2.6435,-2.6636,-2.6651,-2.6719,-2.6867,-2.6941,-2.7028,-2.7148,-2.72,-2.7303,-2.7379,-2.7518,-2.7545,-2.7617,-2.7682,-2.7732,-2.7767,-2.7755,-2.7759,-2.7753,-2.7864,-2.7842,-2.7849,-2.78,-2.7802,-2.7803,-2.7855,0,-2.6469,-2.663,-2.6721,-2.6843,-2.6932,-2.7017,-2.7093,-2.7192,-2.7268,-2.7354,-2.7438,-2.7535,-2.7563,-2.7608,-2.7661,-2.7751,-2.779,-2.7749,-2.7872,-2.7875,-2.7838,-2.7859,-2.7836,-2.7879,-2.7863,-2.7864,-2.7865,0,-2.653,-2.6633,-2.6764,-2.6905,-2.6945,-2.7012,-2.7131,-2.7212,-2.7327,-2.7379,-2.7461,-2.7527,-2.7623,-2.7632,-2.7767,-2.7737,-2.7793,-2.7846,-2.785,-2.7864,-2.787,-2.7874,-2.7895,-2.7901,-2.7878,-2.7877,-2.7876,0,-2.6488,-2.6659,-2.6761,-2.6816,-2.6982,-2.7028,-2.7099,-2.7214,-2.7281,-2.7385,-2.7429,-2.7542,-2.7604,-2.7691,-2.7786,-2.7783,-2.7912,-2.7928,-2.7958,-2.7956,-2.798,-2.7977,-2.801,-2.8017,-2.8017,-2.8017,-2.8016,0,-2.6517,-2.6594,-2.6744,-2.6806,-2.6896,-2.7001,-2.7088,-2.7166,-2.7268,-2.7347,-2.7428,-2.7501,-2.7622,-2.7711,-2.7786,-2.7887,-2.7914,-2.7959,-2.7978,-2.7952,-2.7946,-2.7989,-2.7989,-2.8018,-2.8018,-2.8018,-2.8017,0,-2.6484,-2.6588,-2.6704,-2.6853,-2.6893,-2.6952,-2.708,-2.7144,-2.7225,-2.7325,-2.7354,-2.7481,-2.759,-2.7694,-2.7839,-2.789,-2.7991,-2.8016,-2.7952,-2.7963,-2.7987,-2.7983,-2.8048,-2.8062,-2.8059,-2.8059,-2.8059,0,-2.6495,-2.6557,-2.6713,-2.6773,-2.6843,-2.6938,-2.7007,-2.7114,-2.7183,-2.7321,-2.7368,-2.7483,-2.7581,-2.7751,-2.7856,-2.7968,-2.7996,-2.8012,-2.8014,-2.7986,-2.7997,-2.7992,-2.8,-2.8009,-2.8008,-2.8008,-2.8007,0,-2.6505,-2.6554,-2.6651,-2.6767,-2.6848,-2.6944,-2.7043,-2.7087,-2.7213,-2.7287,-2.7399,-2.7475,-2.7625,-2.7738,-2.7863,-2.7938,-2.7994,-2.8007,-2.802,-2.7993,-2.7953,-2.7976,-2.7946,-2.8004,-2.8004,-2.8005,-2.8005,-2.8005,-2.6496,-2.6555,-2.6675,-2.6781,-2.6867,-2.6958,-2.7027,-2.7117,-2.7213,-2.7343,-2.7401,-2.7515,-2.7632,-2.7806,-2.7879,-2.7971,-2.7984,-2.8002,-2.8007,-2.801,-2.8005,-2.7939,-2.7994,-2.7994,-2.7995,-2.7995,-2.7995,0,-2.651,-2.6591,-2.6688,-2.6825,-2.6909,-2.6956,-2.7069,-2.7136,-2.7235,-2.7339,-2.7435,-2.7565,-2.7677,-2.7792,-2.791,-2.7961,-2.799,-2.7989,-2.7986,-2.8002,-2.7986,-2.7963,-2.7963,-2.7963,-2.7963,-2.7963,-2.7963,-2.7963,-2.6527,-2.6631,-2.6694,-2.6842,-2.6924,-2.7037,-2.7097,-2.7182,-2.7267,-2.7409,-2.7502,-2.7577,-2.7686,-2.7814,-2.7919,-2.795,-2.799,-2.7981,-2.8019,-2.8001,-2.8003,-2.8005,-2.7984,-2.7988,-2.7988,-2.8028,-2.8028,-2.8029]},{"header":{"parameterUnit":"m.s-1","parameterCategory":1,"la1":30.2991,"la2":30.254,"lo1":-89.0895,"lo2":-89.0444,"dy":0.0017,"dx":0.0017,"nx":28,"ny":28,"refTime":"2023-09-18T09:00:00:Z","depth":0,"parameterNumber":3,"parameterNumberName":"V-component_of_WINDS"},"data":[0,0,0,0,0,0,0,0,0,0,0,0,0,0,0,0,0,0,0,0,0,0,0,0,0,0,0,0,0,0,0,0,0,0,0,0,0,0,0,0,0,0,0,0,0,0,0,0,0,0,0,0,0,0,0,0,0,0,-0.5333,-0.5334,0,-0.54,-0.5401,-0.5402,-0.5486,-0.5487,-0.5488,-0.549,-0.5552,-0.5552,-0.5553,0,0,0,0,0,0,0,0,0,0,0,0,0,-0.5272,-0.5273,-0.5333,-0.5334,-0.5335,-0.54,-0.5401,-0.5402,-0.5485,-0.5487,-0.5489,-0.549,-0.5552,-0.5552,-0.5553,0,0,0,0,0,0,0,0,0,0,0,0,0,-0.5315,-0.5273,-0.5333,-0.5385,-0.539,-0.54,-0.5401,-0.5402,-0.5485,-0.5487,-0.5489,-0.5491,-0.5552,-0.5552,-0.5553,-0.5516,0,0,-0.5555,-0.5555,0,0,0,0,0,0,0,0,-0.5312,-0.5317,-0.5376,-0.5381,-0.5387,-0.5437,-0.5403,-0.544,-0.5484,-0.5449,-0.549,-0.5492,-0.5512,-0.5516,-0.5524,-0.5519,-0.5522,-0.5555,-0.5555,-0.5555,-0.5556,0,0,0,0,0,0,0,-0.5309,-0.5314,-0.536,-0.5377,-0.5384,-0.5403,-0.5411,-0.541,-0.5468,-0.5452,-0.5458,-0.5465,-0.5515,-0.5523,-0.5526,-0.5523,-0.5555,-0.5555,-0.5556,-0.5556,-0.5491,-0.5489,0,0,0,0,0,0,-0.5299,-0.5311,-0.5358,-0.5362,-0.5354,-0.5402,-0.5411,-0.5419,-0.5468,-0.5478,-0.5463,-0.5469,-0.5521,-0.5525,-0.5528,-0.5489,-0.5555,-0.5556,-0.5556,-0.5493,-0.5491,-0.5489,0,0,0,0,0,0,-0.5298,-0.5303,-0.5355,-0.5338,-0.5347,-0.5401,-0.5408,-0.5419,-0.5427,-0.5477,-0.5487,-0.5461,-0.5522,-0.5527,-0.5519,-0.5492,-0.5556,-0.5557,-0.5496,-0.5493,-0.549,-0.5409,0,0,0,0,0,0,-0.5296,-0.5302,-0.5289,-0.5338,-0.5347,-0.5346,-0.5407,-0.5419,-0.5429,-0.5436,-0.5478,-0.5486,-0.5524,-0.5518,-0.552,-0.5494,-0.5557,-0.5498,-0.5494,-0.5491,-0.5414,-0.5403,-0.5394,0,0,0,0,0,-0.5293,-0.5262,-0.5288,-0.5293,-0.5333,-0.5344,-0.5349,-0.5396,-0.5426,-0.5413,-0.5446,-0.5485,-0.5495,-0.5516,-0.5519,-0.5493,-0.55,-0.5496,-0.5491,-0.5418,-0.5405,-0.5394,0,0,0,0,0,0,-0.5207,-0.527,-0.5299,-0.5283,-0.5308,-0.5358,-0.5344,-0.538,-0.5395,-0.5402,-0.5457,-0.5465,-0.545,-0.5471,-0.5494,-0.546,-0.5503,-0.5499,-0.5447,-0.5435,-0.5425,-0.542,-0.5558,0,0,0,0,0,-0.5187,-0.5192,-0.5246,-0.5227,-0.5238,-0.5289,-0.5295,-0.5329,-0.5356,-0.5366,-0.5398,-0.5421,-0.5429,-0.5433,-0.5444,-0.5418,-0.5427,-0.5401,-0.5391,-0.5383,-0.5378,-0.5365,-0.5354,-0.5473,-0.5473,-0.5473,0,0,-0.5144,-0.5179,-0.5178,-0.5211,-0.5234,-0.5237,-0.5297,-0.5297,-0.5299,-0.5366,-0.536,-0.5384,-0.5413,-0.5396,-0.539,-0.5413,-0.5347,-0.5377,-0.5369,-0.537,-0.5359,-0.5348,-0.5338,-0.547,-0.5471,-0.5471,0,0,-0.5068,-0.5095,-0.5082,-0.5105,-0.514,-0.5174,-0.5171,-0.5216,-0.5235,-0.5231,-0.5281,-0.5283,-0.5297,-0.5316,-0.5327,-0.5259,-0.5295,-0.526,-0.5207,-0.5195,-0.5185,-0.5177,-0.5152,-0.5143,-0.5255,-0.5255,-0.5255,0,-0.5009,-0.5018,-0.507,-0.5069,-0.5081,-0.5143,-0.513,-0.5149,-0.5184,-0.519,-0.5216,-0.5235,-0.5259,-0.5247,-0.523,-0.5237,-0.5234,-0.5255,-0.5183,-0.5175,-0.5168,-0.5145,-0.5136,-0.5251,-0.5251,-0.5252,-0.5252,0,-0.4944,-0.4949,-0.4934,-0.497,-0.4981,-0.4972,-0.5023,-0.5027,-0.506,-0.509,-0.5085,-0.5116,-0.5134,-0.5134,-0.5165,-0.5126,-0.5139,-0.5173,-0.5217,-0.5152,-0.5131,-0.5123,-0.5244,-0.5246,-0.5247,-0.5248,0,0,-0.4814,-0.4881,-0.4874,-0.4891,-0.4935,-0.4939,-0.4933,-0.4954,-0.4956,-0.4978,-0.4974,-0.4984,-0.5016,-0.5029,-0.5063,-0.5052,-0.4995,-0.5087,-0.5088,-0.5068,-0.4954,-0.4928,-0.4917,-0.502,-0.5019,-0.5017,-0.4951,0,-0.4746,-0.4743,-0.479,-0.4773,-0.4778,-0.4838,-0.4833,-0.4858,-0.4887,-0.4893,-0.4924,-0.4931,-0.4972,-0.4981,-0.4972,-0.5004,-0.4973,-0.5009,-0.5015,-0.5015,-0.5006,-0.4906,-0.4879,-0.4815,-0.4943,-0.4942,-0.4941,0,-0.4665,-0.4686,-0.467,-0.4715,-0.4719,-0.4714,-0.4736,-0.4743,-0.4772,-0.4794,-0.4808,-0.4848,-0.4844,-0.4887,-0.4882,-0.4905,-0.4911,-0.4926,-0.4925,-0.4927,-0.4974,-0.4905,-0.4796,-0.4786,-0.4929,-0.493,-0.4931,0,-0.4572,-0.4595,-0.4589,-0.4602,-0.4655,-0.465,-0.4671,-0.4703,-0.4712,-0.4731,-0.4737,-0.4754,-0.4763,-0.4774,-0.4817,-0.4844,-0.4806,-0.4853,-0.4823,-0.4822,-0.4812,-0.4812,-0.4701,-0.4815,-0.4816,-0.4816,-0.4816,0,-0.449,-0.4477,-0.4548,-0.4544,-0.4532,-0.4586,-0.4572,-0.4599,-0.4627,-0.4627,-0.4679,-0.4679,-0.4735,-0.474,-0.4773,-0.4764,-0.4767,-0.4784,-0.4792,-0.4779,-0.4777,-0.4783,-0.4788,-0.4813,-0.4814,-0.4814,-0.4815,0,-0.4383,-0.443,-0.4427,-0.4478,-0.4491,-0.4479,-0.4522,-0.452,-0.4552,-0.4553,-0.4556,-0.4606,-0.4615,-0.4659,-0.4677,-0.4699,-0.4678,-0.4696,-0.4668,-0.4674,-0.4642,-0.4644,-0.4531,-0.4519,-0.4641,-0.4639,-0.4638,0,-0.4328,-0.432,-0.4371,-0.4377,-0.4397,-0.4404,-0.4415,-0.4468,-0.4476,-0.4509,-0.4502,-0.4516,-0.453,-0.4541,-0.4577,-0.4592,-0.461,-0.4569,-0.4612,-0.4599,-0.4609,-0.4609,-0.4608,-0.456,-0.4558,-0.4557,-0.4556,0,-0.4224,-0.4248,-0.4262,-0.4284,-0.4296,-0.4315,-0.4337,-0.4338,-0.4396,-0.4403,-0.4414,-0.4425,-0.4445,-0.4457,-0.4478,-0.4498,-0.4536,-0.4542,-0.4536,-0.4522,-0.4506,-0.4514,-0.4643,-0.4544,-0.4546,-0.4546,-0.4547,-0.4548,-0.4141,-0.4137,-0.4173,-0.4187,-0.421,-0.423,-0.423,-0.4264,-0.4275,-0.4297,-0.4327,-0.4334,-0.4363,-0.4395,-0.4412,-0.4417,-0.4439,-0.443,-0.4428,-0.4425,-0.4418,-0.4506,-0.4421,-0.4422,-0.4422,-0.4422,-0.4423,0,-0.404,-0.4067,-0.4079,-0.411,-0.412,-0.4158,-0.4185,-0.419,-0.4197,-0.4222,-0.4235,-0.4248,-0.426,-0.4298,-0.4314,-0.4311,-0.4329,-0.4313,-0.4314,-0.4317,-0.4397,-0.4401,-0.4298,-0.4298,-0.4298,-0.4298,-0.4299,-0.4299,-0.3989,-0.3985,-0.4013,-0.402,-0.4046,-0.4055,-0.4067,-0.4085,-0.4106,-0.4119,-0.413,-0.4156,-0.4186,-0.4205,-0.4218,-0.4228,-0.4231,-0.421,-0.4226,-0.43,-0.4312,-0.4323,-0.4327,-0.421,-0.421,-0.4146,-0.4145,-0.4145]}]]